User: anonymous   Login
Location: Unspecified
(0.0000°N, 0.0000°E)
Time: 04:01:37
(UTC+02:00)
Language:

ARIANE 5 R/B - Orbit

View from above orbital plane
View from above orbital plane
View from above satellite
View from above satellite

Ground track
Ground track

The orbit data is extracted from the following two-line orbital elements,

1 28379U 04027B   15146.49464640  .00000113  00000-0 -10871-2 0  9991
2 28379 006.5896 224.8060 7279312 290.2445 021.1450 02.07922859 82472
Epoch (UTC): 26 May 2015 11:52:17
Eccentricity: 0.7279312
inclination: 6.5896°
perigee height: 676 km
apogee height: 38426 km
right ascension of ascending node: 224.8060°
argument of perigee: 290.2445°
revolutions per day: 2.07922859
mean anomaly at epoch: 21.1450°
orbit number at epoch: 8247

The dashed part of the orbit path shows where the satellite is in the earth's shadow,  

DLR